Wind_Speed
31 30 30 30 29 29 29 28 28 28 27 27 27 27 27 26 26 26 26 26 25 25 24 24 23 23 23 23 23 23 23 23 23 22 22 22 21 21 21 21 20 20 21
32 32 31 31 31 30 30 30 30 31 30 29 29 29 28 28 27 27 26 26 26 26 26 25 24 24 24 24 24 24 25 25 25 25 24 23 23 23 23 23 22 22 23
34 33 32 32 32 31 31 31 32 33 32 32 31 31 30 29 28 28 28 28 27 27 27 26 26 26 26 26 26 26 25 26 26 26 26 26 25 25 24 24 24 24 25
36 36 34 34 34 34 34 34 34 34 34 34 33 32 32 31 30 30 30 29 29 29 29 28 28 28 28 27 27 28 27 28 28 28 28 28 27 27 27 26 26 26 26
38 38 37 36 37 37 36 36 35 35 35 35 35 34 34 33 32 31 31 31 31 31 31 30 30 30 30 30 30 29 29 29 29 29 30 29 29 29 29 29 29 28 28
40 40 40 39 38 38 38 37 37 37 36 37 37 36 36 35 34 34 33 34 34 33 33 33 33 32 32 31 32 32 31 31 31 31 31 31 31 31 31 31 31 30 30
41 41 42 41 40 39 39 39 39 38 38 38 38 38 37 37 37 37 37 37 36 35 35 34 34 34 34 33 33 33 33 33 32 32 33 33 33 33 33 33 33 33 32
41 41 42 42 42 42 41 41 40 40 40 40 40 40 40 40 39 39 38 38 38 37 36 36 35 36 36 35 35 34 34 34 34 34 34 34 35 35 35 35 35 35 35
41 40 40 41 42 42 43 42 42 42 42 42 41 41 41 41 41 40 39 39 39 38 38 36 36 36 36 36 37 36 36 36 36 37 36 36 36 36 36 37 37 36 36
41 41 41 40 41 42 43 43 43 43 43 43 43 42 42 42 42 41 40 40 40 39 39 38 38 38 38 38 38 38 38 38 38 38 38 38 38 38 38 38 38 38 38
42 42 41 41 42 42 43 44 44 44 44 44 44 44 43 43 43 42 41 41 40 40 40 41 40 39 39 39 40 40 40 40 40 39 39 39 39 40 41 41 41 40 40
43 44 43 42 42 42 43 43 44 45 45 44 44 44 44 44 44 43 42 41 41 42 42 42 42 42 41 41 41 41 41 42 42 42 42 41 41 42 43 42 43 43 43
44 44 44 44 43 43 43 43 44 45 45 45 45 45 44 45 45 44 43 43 43 43 43 43 43 43 44 43 42 42 42 43 43 43 44 44 45 45 45 45 45 45 45
46 47 46 45 45 45 44 45 45 46 46 46 46 46 46 46 46 45 45 45 44 44 44 44 44 45 45 44 44 44 44 44 44 44 45 46 47 47 47 47 47 47 47
49 49 49 49 49 48 47 47 47 47 48 48 47 47 47 47 47 47 47 47 47 46 46 46 46 46 46 46 46 45 45 45 46 46 47 47 48 48 48 48 49 49 49
50 50 51 50 49 49 49 48 48 48 49 49 49 49 48 47 48 48 47 47 48 49 48 47 47 47 47 47 47 47 47 48 48 48 49 49 50 51 51 51 51 51 51
50 50 50 50 50 50 50 50 50 50 50 50 50 50 49 49 49 49 50 49 49 49 48 48 48 48 49 49 48 49 49 49 50 50 50 51 52 53 53 54 54 53 53
52 52 51 51 52 51 51 51 51 50 51 51 51 51 50 50 50 50 51 51 50 50 49 49 49 50 50 50 50 50 51 51 51 51 52 53 54 54 54 55 55 55 54
53 53 53 53 53 53 52 52 52 52 53 52 52 52 52 52 52 51 51 52 52 52 51 51 51 51 51 51 52 52 52 53 54 54 54 54 55 55 55 55 56 56 55
52 53 54 54 54 53 53 53 54 54 55 54 54 54 54 53 53 52 52 53 53 53 52 52 53 53 52 53 53 53 54 54 55 55 55 55 55 55 55 56 56 57 56
52 52 53 55 54 55 54 53 54 54 55 56 55 55 54 53 54 53 53 54 54 54 53 53 53 53 53 54 54 54 55 55 55 55 55 55 56 56 56 56 57 57 57
53 53 53 54 54 55 55 55 55 54 54 54 54 55 55 55 55 55 55 54 54 54 54 54 54 54 54 54 54 55 55 55 55 55 55 56 56 56 56 56 57 57 57
52 53 53 53 54 54 55 54 55 54 54 53 53 54 54 55 55 56 55 55 55 55 55 54 54 54 54 54 55 55 55 55 55 54 55 55 55 56 56 57 57 57 58
51 51 51 52 53 53 53 53 53 53 53 53 52 52 52 54 54 55 55 55 55 55 55 55 55 55 54 55 55 55 55 55 55 55 55 55 55 56 56 56 56 57 57
50 51 51 51 51 52 52 53 53 52 52 52 50 50 50 51 52 53 54 53 53 53 53 53 53 54 54 55 55 55 55 55 55 55 56 56 56 56 56 56 56 56 56
50 50 51 51 50 50 50 51 52 52 51 50 50 50 50 50 51 52 52 51 51 51 51 51 51 52 53 53 54 54 54 54 55 54 54 55 55 55 55 55 55 55 56
Wind_Direction
248 248 247 248 249 249 249 250 252 253 253 254 255 257 256 256 255 256 257 257 258 258 258 259 258 258 258 257 258 259 261 263 264 266 267 269 270 270 272 273 273 273 273
249 248 249 249 249 249 251 251 252 253 254 255 256 256 255 256 256 254 255 255 256 257 257 257 258 258 258 257 258 259 260 261 262 264 266 267 268 270 271 271 271 272 273
248 248 249 249 248 250 251 252 252 253 254 255 256 256 255 255 255 254 253 254 256 257 256 256 257 258 260 260 260 261 261 262 263 264 265 267 267 269 270 270 271 272 273
249 249 249 249 249 251 252 252 253 254 254 254 254 255 255 254 255 254 253 254 256 257 257 257 257 259 260 261 262 262 263 263 264 264 265 267 267 268 269 270 271 273 273
249 250 250 250 251 251 252 252 253 254 254 254 254 254 255 255 255 255 255 255 256 256 257 257 258 258 259 260 262 262 263 264 264 265 265 267 267 267 269 270 270 272 273
249 249 250 250 251 250 251 252 253 254 254 254 255 255 255 255 256 256 256 256 257 257 257 257 257 258 258 259 261 263 263 265 265 265 265 266 267 267 268 269 270 270 271
249 250 249 249 250 251 251 252 252 254 254 255 254 255 255 256 257 258 258 257 257 257 258 258 257 259 259 259 260 261 263 264 265 265 265 265 266 267 268 268 269 269 271
250 251 250 250 250 251 251 252 253 253 254 254 255 255 256 256 258 258 259 259 258 257 257 258 258 259 260 260 259 261 262 263 264 265 266 266 266 267 267 267 268 269 270
250 251 251 251 250 251 252 251 252 253 254 255 255 256 256 257 258 259 259 259 260 259 258 259 260 260 260 260 260 260 261 262 263 264 265 266 267 267 266 267 268 269 269
250 252 253 253 253 253 252 252 251 252 254 255 255 256 257 258 259 259 259 259 259 259 259 260 261 261 261 261 261 262 262 262 263 264 265 266 267 267 266 267 268 268 269
251 252 254 254 253 253 253 252 252 253 254 255 256 257 258 258 259 259 258 258 258 258 259 260 260 261 261 262 262 262 263 264 264 264 265 266 267 267 267 268 269 269 270
251 253 254 254 253 253 253 253 253 253 254 255 256 258 258 258 258 258 258 257 257 258 259 260 261 261 262 262 263 264 264 264 265 265 265 266 267 268 268 268 270 270 271
251 253 254 254 254 253 252 253 253 253 254 256 256 257 258 257 257 258 258 258 257 258 259 261 261 262 262 262 263 264 265 265 265 266 266 266 267 268 269 269 270 271 271
251 252 253 253 253 253 253 253 253 254 256 256 256 256 257 257 257 257 258 258 258 258 259 260 261 262 262 263 262 263 264 265 266 266 267 268 268 269 270 270 271 272 272
252 253 254 255 255 255 254 254 254 255 256 256 256 256 257 257 257 258 258 259 259 259 259 260 261 261 261 262 263 263 262 264 265 266 267 268 268 269 270 271 272 273 273
253 254 256 257 257 256 256 255 255 256 257 257 257 257 257 257 258 259 259 260 260 260 260 261 260 260 261 262 263 263 263 264 265 266 267 268 269 270 271 272 273 273 274
253 253 254 255 256 256 256 256 256 256 257 258 258 258 258 258 258 259 260 261 261 261 261 261 261 261 261 261 262 264 265 265 266 267 267 269 270 271 272 272 273 273 274
255 254 254 254 255 257 256 256 256 256 257 257 257 257 257 257 258 259 260 261 261 261 261 261 261 261 261 262 263 264 265 266 267 268 269 269 270 271 272 272 272 273 273
256 255 255 255 256 256 256 256 256 256 256 257 257 257 257 258 258 260 261 261 262 262 262 262 262 262 262 263 264 265 266 267 268 269 270 270 270 271 272 272 273 273 273
256 256 257 257 257 256 256 256 256 256 257 257 257 257 257 258 259 260 261 262 263 263 262 262 263 263 263 264 265 266 267 268 269 270 271 272 272 271 271 271 272 273 273
257 257 257 257 257 256 256 256 256 257 257 258 257 257 257 257 259 260 261 261 262 262 263 263 263 264 264 265 266 268 268 268 269 271 271 271 271 271 271 271 272 273 273
258 258 258 258 258 258 257 258 257 257 258 257 256 257 257 257 258 260 261 261 262 263 263 264 265 265 265 266 267 268 269 269 270 270 270 270 270 271 271 271 272 272 272
259 259 258 258 258 259 258 258 258 258 257 257 257 257 257 257 259 259 260 261 262 263 264 265 265 266 266 267 268 268 269 270 270 270 270 270 270 271 271 272 271 271 271
260 259 258 258 258 259 258 258 258 258 257 257 257 257 257 258 259 259 259 260 262 263 264 264 265 265 266 267 268 269 269 269 269 269 270 270 270 271 272 272 272 271 272
260 260 259 260 259 259 259 259 258 257 256 256 257 257 257 258 259 259 260 261 262 263 264 265 265 265 267 268 268 269 269 270 270 269 270 271 271 271 271 271 271 272 272
260 261 260 259 259 259 258 258 259 258 256 255 256 258 259 260 260 261 262 262 262 263 264 265 265 266 267 268 268 269 269 270 270 270 271 271 271 271 271 270 270 271 272
Height
5797 5799 5800 5802 5803 5805 5806 5808 5809 5810 5811 5812 5813 5813 5814 5815 5815 5816 5816 5817 5818 5818 5819 5820 5820 5821 5822 5823 5823 5824 5825 5826 5826 5826 5826 5826 5826 5826 5827 5826 5826 5826 5825
5790 5792 5793 5795 5797 5798 5800 5801 5803 5804 5805 5806 5806 5807 5808 5809 5809 5810 5810 5811 5812 5813 5813 5814 5815 5815 5816 5817 5818 5818 5819 5820 5820 5820 5821 5821 5821 5821 5821 5821 5821 5821 5821
5782 5784 5786 5788 5789 5791 5793 5794 5796 5797 5798 5799 5800 5800 5801 5802 5803 5803 5804 5805 5806 5806 5807 5808 5809 5809 5810 5811 5811 5812 5813 5813 5814 5814 5815 5815 5815 5815 5815 5816 5816 5816 5815
5773 5775 5778 5780 5782 5783 5785 5786 5788 5789 5790 5791 5792 5793 5794 5795 5796 5797 5798 5798 5799 5800 5801 5801 5802 5803 5803 5804 5805 5805 5806 5807 5807 5808 5808 5809 5809 5809 5809 5809 5810 5809 5809
5764 5766 5769 5771 5773 5775 5776 5778 5780 5781 5782 5784 5785 5786 5787 5788 5789 5789 5790 5791 5792 5793 5794 5794 5795 5796 5796 5797 5798 5798 5799 5800 5800 5801 5801 5802 5802 5802 5802 5803 5803 5803 5803
5754 5757 5759 5762 5764 5766 5767 5769 5771 5772 5774 5775 5776 5778 5779 5780 5781 5782 5783 5783 5784 5785 5786 5787 5787 5788 5789 5790 5790 5791 5791 5792 5793 5793 5794 5794 5795 5795 5795 5795 5795 5795 5795
5744 5746 5749 5752 5754 5756 5758 5760 5762 5763 5765 5766 5768 5769 5770 5771 5773 5774 5774 5775 5776 5776 5777 5778 5779 5780 5780 5781 5782 5783 5783 5784 5785 5785 5786 5786 5787 5787 5787 5787 5787 5787 5787
5734 5736 5738 5741 5743 5745 5748 5750 5752 5753 5755 5757 5759 5760 5761 5763 5763 5765 5765 5766 5767 5767 5768 5769 5770 5771 5772 5773 5774 5774 5775 5776 5776 5777 5777 5778 5778 5778 5778 5779 5779 5779 5779
5725 5726 5728 5730 5732 5734 5737 5739 5741 5743 5745 5747 5749 5750 5751 5753 5754 5755 5756 5756 5757 5758 5759 5760 5761 5762 5763 5763 5764 5765 5766 5767 5767 5768 5768 5768 5769 5769 5769 5769 5769 5769 5769
5714 5716 5718 5719 5722 5724 5726 5728 5730 5732 5735 5737 5738 5740 5742 5743 5744 5745 5746 5747 5748 5749 5750 5751 5751 5752 5753 5754 5755 5756 5756 5757 5758 5758 5758 5759 5759 5759 5760 5760 5759 5760 5759
5704 5706 5707 5709 5710 5712 5714 5717 5719 5721 5724 5726 5728 5729 5730 5731 5732 5734 5736 5737 5738 5739 5740 5741 5742 5743 5743 5744 5745 5745 5746 5747 5747 5748 5748 5748 5749 5749 5749 5749 5749 5749 5749
5693 5695 5696 5697 5699 5701 5703 5705 5707 5710 5712 5714 5716 5718 5719 5720 5722 5723 5724 5726 5727 5729 5730 5730 5732 5732 5733 5734 5735 5735 5736 5736 5737 5737 5737 5738 5738 5738 5738 5738 5738 5738 5738
5681 5683 5685 5686 5688 5689 5691 5693 5695 5698 5700 5702 5704 5706 5707 5709 5710 5711 5713 5714 5716 5718 5719 5720 5720 5721 5722 5723 5724 5724 5725 5725 5726 5726 5726 5727 5727 5727 5727 5727 5727 5727 5727
5670 5672 5673 5675 5676 5678 5679 5681 5683 5686 5688 5690 5692 5694 5695 5697 5698 5700 5701 5703 5704 5706 5707 5708 5709 5710 5711 5711 5712 5713 5714 5714 5714 5714 5715 5715 5715 5715 5715 5715 5715 5715 5714
5657 5659 5661 5663 5664 5666 5667 5669 5671 5673 5675 5678 5679 5681 5683 5685 5686 5688 5689 5690 5692 5694 5696 5697 5697 5698 5699 5700 5700 5701 5702 5702 5702 5702 5702 5703 5703 5703 5703 5702 5703 5702 5702
5644 5645 5648 5649 5651 5653 5654 5656 5658 5660 5662 5664 5666 5668 5670 5672 5674 5675 5676 5678 5679 5681 5683 5685 5685 5686 5686 5687 5688 5689 5689 5690 5690 5690 5690 5690 5690 5690 5690 5689 5689 5689 5688
5630 5632 5634 5636 5637 5639 5641 5643 5645 5647 5649 5651 5653 5655 5657 5659 5661 5663 5664 5665 5666 5667 5670 5672 5672 5673 5673 5674 5675 5675 5676 5676 5677 5676 5676 5676 5676 5676 5675 5675 5675 5675 5675
5616 5618 5620 5621 5623 5625 5627 5629 5631 5632 5635 5637 5639 5641 5644 5646 5648 5649 5650 5652 5652 5653 5655 5658 5659 5659 5660 5661 5661 5662 5662 5662 5663 5662 5662 5662 5662 5661 5661 5660 5660 5660 5660
5602 5603 5605 5607 5608 5611 5613 5615 5616 5618 5620 5623 5625 5628 5630 5632 5634 5635 5637 5638 5639 5640 5641 5643 5645 5646 5646 5647 5647 5648 5648 5648 5648 5648 5648 5648 5647 5647 5646 5646 5645 5645 5645
5588 5589 5590 5592 5593 5595 5597 5599 5601 5603 5605 5608 5610 5613 5615 5618 5620 5621 5622 5623 5624 5625 5627 5628 5630 5631 5632 5632 5633 5633 5634 5633 5633 5633 5633 5632 5632 5631 5631 5631 5631 5630 5630
5573 5574 5575 5577 5578 5580 5582 5584 5586 5588 5590 5592 5595 5597 5600 5603 5605 5606 5608 5609 5610 5611 5612 5613 5615 5616 5617 5617 5618 5618 5618 5618 5618 5617 5617 5617 5616 5616 5615 5615 5615 5614 5614
5558 5559 5560 5562 5563 5565 5567 5569 5571 5573 5574 5577 5579 5582 5585 5587 5589 5591 5592 5594 5595 5596 5597 5598 5600 5601 5601 5602 5602 5602 5602 5602 5603 5603 5601 5601 5600 5600 5600 5599 5599 5598 5598
5543 5544 5546 5547 5549 5550 5552 5553 5555 5557 5559 5561 5564 5567 5569 5571 5573 5575 5576 5578 5579 5581 5582 5584 5585 5586 5586 5586 5586 5587 5586 5586 5587 5586 5585 5585 5584 5584 5583 5583 5582 5582 5582
5528 5530 5531 5532 5533 5535 5536 5538 5540 5542 5544 5547 5549 5551 5554 5556 5557 5559 5561 5563 5564 5566 5567 5568 5569 5570 5570 5570 5570 5570 5570 5570 5570 5570 5569 5569 5569 5568 5568 5567 5566 5566 5566
5514 5515 5516 5517 5518 5520 5521 5523 5525 5527 5530 5532 5534 5536 5538 5541 5543 5544 5546 5548 5549 5550 5550 5551 5553 5553 5553 5554 5553 5553 5553 5553 5554 5554 5553 5553 5553 5552 5552 5552 5551 5550 5550
5500 5500 5501 5502 5503 5505 5506 5508 5510 5513 5515 5518 5520 5522 5524 5525 5527 5528 5530 5532 5534 5535 5535 5536 5537 5538 5538 5538 5537 5537 5537 5537 5537 5539 5538 5537 5537 5536 5537 5537 5535 5535 5534